Wind_Speed
32 31 30 27 24 24 25 28 29 29 28 28 28 28 27 27 27 27 26 26 24 22 20 19 18 17 16 13 11 9 8 8 9 10 10 8 7 6 5 4 5 6 6 6 7 7 8 8 9 9 9 8 8 8 8 7 6 5 4 4 4 4 4 4 3 3 3 2 3
32 32 32 30 27 24 25 28 30 31 30 29 28 27 26 26 26 27 28 27 25 22 20 19 19 18 17 14 11 9 9 9 10 11 10 9 8 7 6 6 6 6 6 6 7 7 8 9 10 10 10 9 9 8 8 7 6 5 4 4 4 4 4 3 3 3 3 3 4
32 33 33 33 30 27 25 28 31 32 32 30 29 27 27 26 27 28 28 27 24 22 20 19 20 19 18 15 12 10 9 10 11 11 11 11 10 8 7 7 7 7 7 7 7 8 9 10 10 10 10 10 9 8 8 7 5 4 4 5 5 4 4 4 4 4 4 4 4
32 33 34 35 33 30 27 27 30 32 32 30 29 28 27 27 28 29 28 26 23 21 21 21 22 22 20 17 13 11 10 11 12 12 12 12 11 9 8 7 7 7 7 7 8 8 9 10 11 11 10 9 8 7 7 6 5 4 4 5 5 4 4 4 4 4 4 4 4
33 33 35 36 35 32 28 26 27 30 31 31 30 29 28 28 29 29 28 26 24 23 22 23 24 24 22 18 14 12 11 12 13 13 13 13 11 10 9 8 8 7 7 7 8 9 9 10 11 10 9 8 7 7 6 6 5 5 5 6 5 5 5 5 5 5 5 4 5
33 33 34 36 36 34 30 26 25 27 30 31 31 30 30 30 30 29 28 26 25 25 25 25 26 25 22 19 15 13 13 13 14 15 14 14 12 11 10 9 8 7 7 7 8 9 9 10 10 10 8 7 6 6 6 6 5 5 6 6 6 5 5 6 6 6 5 5 5
33 33 34 35 36 36 32 28 25 26 29 31 32 32 31 31 30 29 28 27 27 27 27 27 27 25 23 20 17 15 14 14 15 15 15 15 13 12 10 9 8 7 7 7 7 8 9 9 9 9 8 7 6 6 6 5 5 6 7 7 7 6 6 6 7 7 6 6 6
32 33 34 35 36 36 34 29 26 26 28 31 33 33 32 31 29 29 29 29 29 29 29 28 27 25 23 21 18 16 15 15 15 16 16 15 14 12 11 10 8 7 6 6 7 8 9 9 9 8 7 6 5 5 6 5 5 6 7 8 8 7 7 7 8 7 7 7 7
32 32 33 35 36 36 34 30 27 27 29 31 32 32 32 31 30 30 30 31 31 30 30 29 27 26 24 21 19 17 15 15 16 16 16 15 14 13 11 10 8 7 6 6 7 8 9 9 9 8 7 5 5 5 6 6 6 6 7 8 8 8 8 8 8 8 8 8 8
31 32 32 34 35 35 33 30 27 27 28 30 31 31 31 31 30 31 31 31 31 31 30 29 28 26 24 22 19 17 16 15 16 16 16 15 14 13 12 10 8 6 6 6 7 8 8 9 8 7 6 5 5 5 5 6 6 6 7 8 9 9 9 9 9 9 9 9 9
31 31 32 33 34 34 34 31 28 27 27 29 30 31 31 31 31 32 32 32 32 31 30 29 29 27 25 22 19 17 16 15 16 16 16 15 14 13 11 9 7 6 6 6 7 8 8 8 8 6 5 5 5 5 5 6 6 6 7 8 10 10 10 9 9 9 10 10 10
31 31 32 32 33 34 34 33 30 28 27 28 30 31 32 32 32 33 33 33 33 32 31 30 29 28 25 22 19 17 16 15 16 16 15 15 14 12 10 8 6 6 6 7 8 8 8 8 7 6 5 5 5 5 5 5 6 6 8 9 10 10 10 10 10 10 10 10 10
31 31 32 32 32 33 34 34 32 29 28 29 31 32 33 33 33 34 34 34 33 31 31 31 30 28 25 22 19 16 15 15 15 15 15 14 13 12 10 8 6 6 7 7 8 9 9 8 7 6 5 5 6 5 5 5 6 6 7 8 9 10 10 10 10 10 11 11 11
31 31 32 33 33 33 33 33 32 31 30 30 31 32 33 33 34 34 34 33 31 31 31 31 30 27 24 21 18 16 15 14 14 14 14 14 14 12 10 8 7 7 7 8 8 9 9 8 7 6 6 6 6 6 5 5 5 6 7 8 9 9 10 10 10 11 11 11 11
30 31 32 33 33 33 32 32 32 32 32 31 31 31 31 32 33 33 32 31 30 30 31 31 29 27 23 19 17 15 14 13 14 14 15 16 15 14 12 10 9 8 8 8 9 9 9 8 7 7 6 6 6 6 6 5 5 6 6 8 9 9 10 10 11 11 12 11 11
30 31 32 33 33 32 32 32 32 32 32 31 30 31 31 32 33 32 30 29 29 30 31 31 29 26 22 19 16 14 14 14 16 17 18 18 17 15 13 11 9 8 8 8 9 10 9 8 8 7 7 7 6 6 6 6 6 6 6 7 8 9 10 11 11 12 12 11 11
30 31 31 32 32 32 32 32 31 31 31 30 31 32 33 33 31 29 28 27 28 30 31 31 29 25 22 19 17 16 16 18 20 20 20 19 17 15 13 11 10 8 8 9 10 10 10 9 9 8 8 7 7 7 7 7 7 7 7 8 9 9 10 10 11 12 12 12 11
29 30 31 31 32 32 32 31 29 29 30 31 32 34 34 32 29 27 26 26 27 29 31 30 28 25 21 19 18 19 20 21 21 20 19 18 17 15 13 11 9 8 8 9 10 10 10 10 10 10 9 9 8 8 8 8 8 8 8 8 9 9 9 10 11 12 12 12 12
29 29 30 31 32 32 31 29 28 29 30 32 33 34 33 31 28 27 26 26 26 27 29 30 28 25 21 19 19 20 21 21 20 19 17 17 16 15 13 10 9 8 9 9 10 10 10 11 11 11 11 11 10 9 9 9 9 9 9 9 9 9 9 10 11 11 12 13 12
28 28 29 30 31 31 30 29 29 30 32 32 33 33 32 30 28 26 25 24 25 26 28 30 28 25 22 20 20 20 19 19 18 16 16 17 17 15 12 10 9 9 9 9 9 10 11 11 12 13 13 12 12 11 11 11 11 10 10 10 10 10 10 11 11 12 12 13 13
28 28 28 30 30 31 31 31 32 32 32 32 32 33 32 30 27 25 23 22 23 26 28 30 29 26 23 21 19 19 18 17 16 16 17 18 17 14 11 9 9 9 9 9 9 10 11 12 13 14 14 14 13 13 12 12 12 12 12 12 12 12 12 12 12 13 13 13 13
29 29 30 31 31 31 31 32 32 32 31 32 32 32 31 30 27 24 23 22 24 26 29 31 30 27 24 21 19 17 16 15 15 17 18 18 16 13 11 10 10 10 9 9 9 10 11 12 14 15 16 16 15 14 14 14 14 13 13 14 14 14 14 14 14 14 14 14 14
30 31 31 32 31 31 31 31 31 31 31 31 31 32 31 30 28 26 24 24 25 28 30 31 30 28 25 21 18 15 14 14 16 18 19 19 16 14 12 11 10 10 9 9 9 10 11 13 14 16 17 17 16 16 16 15 15 15 15 15 15 16 16 16 17 16 16 16 16
30 31 31 31 31 30 30 30 29 29 30 30 31 32 31 30 29 27 26 26 28 30 31 31 30 28 25 22 18 15 13 14 17 20 21 20 17 15 13 12 11 10 9 9 9 10 11 13 14 16 17 18 17 17 17 17 17 16 16 16 17 17 17 18 19 19 19 18 18
29 29 29 29 29 28 28 28 28 28 29 29 30 30 30 30 29 28 28 28 30 32 32 32 31 29 26 22 18 15 13 16 19 21 22 20 19 17 15 13 12 10 9 9 9 10 12 13 14 15 17 18 18 18 18 19 19 18 18 18 18 18 19 20 21 21 21 20 20
28 28 27 27 27 27 27 27 27 27 27 28 28 29 29 29 29 29 29 30 32 33 34 32 30 28 25 21 17 15 15 18 21 23 23 22 20 18 16 14 13 11 9 9 10 12 13 13 14 15 16 17 18 19 19 20 21 20 20 19 19 20 20 21 22 23 23 22 22
26 26 26 26 26 27 27 27 26 26 27 27 28 28 28 28 29 29 30 32 34 35 34 33 30 26 23 19 17 16 18 20 23 24 24 23 21 19 17 15 13 11 10 10 11 13 14 14 15 15 15 16 18 19 20 21 22 22 22 21 21 21 22 23 23 24 25 25 24
24 24 24 25 25 26 26 26 26 26 27 27 28 28 28 28 29 29 31 32 34 35 35 33 30 26 22 19 17 18 20 22 23 23 22 21 21 20 18 16 14 12 11 11 12 13 14 15 15 16 16 17 18 19 20 22 23 24 24 23 23 23 23 24 24 25 26 26 26
21 21 21 22 23 23 24 24 25 25 26 27 27 27 28 28 29 29 30 32 34 35 35 33 30 26 23 20 19 20 21 22 21 20 19 19 20 21 19 16 14 12 12 12 12 13 14 15 16 17 17 18 19 20 21 23 24 25 25 26 25 25 24 24 25 26 26 27 27
17 18 19 19 20 20 21 22 23 24 25 26 27 27 28 28 29 29 30 32 33 34 34 33 30 27 24 22 22 22 22 20 18 16 16 18 21 21 19 15 13 12 12 12 13 13 14 15 16 17 18 19 20 21 23 24 25 26 26 27 27 27 26 25 26 27 27 27 27
15 16 16 17 18 18 19 20 21 22 24 25 26 27 28 28 29 29 30 31 32 33 33 32 30 28 25 24 23 22 20 17 15 14 15 18 21 21 18 15 13 13 13 13 13 14 14 15 16 18 19 20 22 23 24 25 26 26 27 28 28 28 28 27 27 28 29 29 28
14 14 15 16 16 17 18 19 20 22 23 25 26 26 27 28 28 29 30 30 31 32 32 32 30 28 26 25 24 21 17 16 14 13 14 18 21 20 17 14 13 13 13 14 14 14 15 15 17 18 20 22 23 24 25 26 26 27 28 29 29 29 29 29 29 30 30 31 30
14 14 14 15 15 16 17 18 19 21 22 24 25 26 27 28 28 29 30 30 31 32 32 31 30 29 27 26 24 20 17 16 14 14 15 19 20 19 16 15 14 14 14 14 15 15 15 16 17 19 21 22 24 25 25 26 26 27 28 29 30 30 30 30 31 31 32 33 33
14 14 14 14 15 16 17 18 19 20 22 23 24 25 26 27 28 29 30 31 31 31 31 30 29 28 27 26 23 19 17 16 15 15 17 19 19 18 16 15 15 15 15 15 15 16 16 16 18 19 21 22 23 24 25 26 26 27 28 30 30 31 31 31 32 33 34 34 34
13 13 14 14 14 15 16 17 18 19 21 22 23 24 25 26 28 29 30 31 31 30 30 29 28 28 27 26 23 20 18 16 15 16 18 19 19 18 16 15 15 15 16 16 16 16 16 17 18 19 20 22 23 24 25 26 27 28 29 30 31 31 32 32 33 34 35 35 34
13 13 13 13 14 15 16 16 17 18 20 21 22 23 24 25 26 28 29 30 30 29 29 28 28 28 27 26 23 20 18 17 16 17 19 19 19 18 17 16 16 16 16 16 16 17 17 17 18 19 20 21 23 24 25 26 28 29 30 31 32 32 33 33 34 34 35 34 33
12 12 12 12 13 14 14 15 16 17 18 20 21 22 23 23 24 26 28 28 28 28 28 27 27 28 28 26 23 20 18 17 17 19 19 19 19 18 17 16 15 16 17 17 17 18 18 18 19 19 20 21 23 25 26 28 29 30 31 32 33 33 33 33 34 34 34 33 31
10 10 10 10 11 12 13 14 14 16 17 18 19 20 21 21 23 24 25 26 26 26 26 26 26 27 26 24 21 19 18 18 19 20 20 19 18 17 16 15 16 16 18 18 19 19 20 20 20 21 21 22 23 25 27 28 30 31 32 32 33 33 33 32 33 33 33 32 31
7 7 7 7 8 10 11 12 12 13 14 16 17 18 18 19 20 21 22 23 23 23 24 24 24 24 24 22 20 19 18 19 20 20 20 19 18 17 16 16 16 17 19 20 20 21 22 23 23 23 23 24 24 26 27 28 29 30 31 32 32 32 32 31 31 32 32 32 31
3 3 4 5 6 7 9 10 10 11 12 13 15 16 16 16 17 18 19 20 20 21 21 22 22 23 22 21 20 19 19 19 20 20 19 18 18 17 17 17 17 18 20 21 22 23 24 25 25 26 25 25 26 27 28 29 29 30 31 31 31 31 30 30 29 30 32 32 31
2 2 3 4 5 6 7 8 8 9 9 11 12 13 13 13 14 15 16 17 17 18 19 20 21 21 20 20 19 19 19 19 20 19 19 18 18 18 17 18 18 20 21 22 24 25 27 27 28 27 27 27 27 27 28 29 29 30 31 31 30 30 29 28 27 28 30 31 31
Wind_Direction
230 227 226 226 227 230 231 230 230 230 229 230 230 231 232 233 231 228 227 227 229 230 229 225 220 217 218 222 230 240 244 238 230 224 219 217 217 223 239 263 285 297 303 307 316 323 327 327 326 323 318 310 300 292 287 284 280 272 264 259 259 263 270 272 274 282 292 299 297
233 229 227 227 226 228 231 233 233 232 232 234 236 236 236 235 231 228 227 229 230 230 227 223 219 218 219 223 230 238 241 238 231 225 220 216 218 225 240 259 276 288 297 307 318 326 328 328 325 321 315 308 299 290 285 283 279 270 260 259 262 269 271 264 266 273 282 288 295
237 233 228 227 227 227 230 235 236 235 235 236 237 237 236 233 229 228 228 230 230 228 226 223 222 221 222 225 231 237 240 237 231 226 221 217 220 227 241 257 271 283 295 309 321 328 330 328 325 320 313 306 298 290 285 283 281 268 252 251 261 267 263 252 255 265 274 280 289
241 236 231 228 228 227 228 234 239 240 237 236 236 235 233 230 228 228 230 231 229 227 226 225 224 223 223 225 231 236 238 235 231 226 222 220 222 229 242 256 268 279 293 310 322 328 329 327 323 318 312 304 296 288 283 281 279 265 250 250 258 260 253 248 253 261 268 269 275
243 240 235 231 230 229 229 233 241 241 237 234 235 234 232 229 229 230 231 230 228 227 226 225 224 223 223 224 229 235 236 234 229 225 223 221 224 231 243 255 266 278 293 310 322 327 327 324 320 315 309 301 292 284 279 278 272 261 253 255 258 257 252 249 251 256 261 263 264
244 243 239 235 232 231 232 236 241 241 237 235 234 234 233 232 231 231 230 229 227 225 224 222 221 221 222 224 228 233 235 232 228 225 222 222 225 232 242 253 264 277 293 309 321 325 324 320 316 311 305 296 287 278 275 273 263 253 251 256 258 255 248 243 244 249 255 258 255
246 245 242 238 234 232 233 237 242 243 239 235 235 235 235 235 234 232 230 228 226 223 221 219 219 219 221 224 227 232 234 232 228 225 223 223 227 233 242 252 263 275 291 309 318 321 320 316 312 307 301 293 282 274 272 270 255 245 244 251 255 254 246 239 245 253 256 252 245
247 247 246 242 236 233 233 238 244 245 242 237 235 235 236 236 235 233 230 227 224 222 221 219 219 220 221 224 228 232 234 232 229 226 225 225 229 236 244 253 262 273 290 307 315 316 314 312 309 304 299 294 282 272 270 269 255 243 240 242 250 253 248 241 247 253 255 250 244
247 248 248 245 239 234 234 239 245 247 244 238 235 234 235 236 235 233 230 227 226 225 224 222 220 221 223 226 230 233 234 233 230 228 227 228 232 238 245 252 259 271 289 304 310 310 309 308 307 303 299 293 282 272 270 270 258 248 241 237 241 247 250 245 247 251 252 248 247
246 248 248 247 242 237 236 240 246 248 244 239 235 234 234 234 234 232 230 229 229 228 226 223 221 221 223 226 230 234 235 234 233 231 230 231 235 240 246 251 258 270 287 299 304 305 305 304 303 300 295 290 280 273 271 271 264 254 244 237 237 242 247 248 248 247 247 246 248
246 247 248 248 245 241 240 241 245 246 243 238 234 233 233 233 232 231 230 230 230 228 226 223 222 222 223 227 231 235 237 237 234 233 232 234 238 243 247 251 259 272 286 295 299 301 300 300 298 294 287 280 270 268 271 272 265 253 243 237 239 243 246 247 246 245 245 246 248
245 245 246 247 246 244 242 243 245 244 241 236 233 232 232 232 231 230 229 229 229 227 225 223 222 222 224 227 232 236 238 237 234 233 233 237 241 245 249 254 262 274 285 292 296 297 297 295 293 285 274 268 259 262 270 273 265 253 242 237 238 242 246 246 245 243 243 245 248
242 243 244 245 245 244 244 244 244 243 240 235 232 231 231 231 230 229 228 228 229 226 223 221 221 222 225 229 233 237 238 235 232 232 234 239 244 248 252 258 265 273 280 288 294 296 295 293 288 275 262 260 259 265 272 273 267 256 245 240 239 241 244 244 243 242 243 244 248
239 240 241 242 244 244 244 244 243 242 239 235 231 229 229 229 228 228 228 229 228 224 220 219 220 222 225 230 235 238 237 233 230 232 237 242 247 250 253 258 262 269 276 286 292 295 293 289 283 271 261 262 265 271 277 276 271 258 247 241 240 241 242 242 241 242 243 245 250
236 237 239 241 243 244 244 243 242 240 237 233 228 225 225 226 227 227 228 229 226 223 220 219 220 222 226 231 235 235 232 229 230 235 241 245 246 248 249 253 256 263 274 285 293 295 292 284 276 269 265 266 271 276 280 281 275 264 251 242 241 241 241 241 240 241 245 250 254
233 235 237 239 241 243 243 242 240 238 235 231 225 222 223 225 228 230 230 228 225 222 221 221 222 224 227 230 230 229 228 231 238 244 246 247 245 244 243 246 250 258 272 286 294 294 289 280 271 266 264 265 270 273 276 280 277 269 257 247 242 241 241 240 240 242 246 255 259
232 233 235 237 240 242 242 240 237 234 231 227 223 222 224 228 232 237 239 234 228 224 223 223 224 225 227 227 227 230 237 244 249 252 251 248 243 239 238 240 245 256 272 287 293 291 285 276 269 264 262 263 265 264 265 268 271 271 263 252 246 244 244 244 243 244 248 257 263
230 232 234 236 238 240 240 237 232 229 226 224 224 226 229 233 239 245 248 244 235 228 224 224 224 225 226 229 235 244 250 254 255 255 252 246 239 234 233 236 244 259 275 287 291 287 280 274 270 266 264 264 263 260 257 257 261 265 265 258 255 254 253 251 248 247 250 257 265
228 230 231 233 236 238 237 233 228 227 227 228 229 231 235 241 248 254 255 251 242 233 226 224 223 224 229 237 247 253 256 256 255 252 247 239 232 229 229 235 247 263 276 284 286 283 278 274 272 270 268 267 266 263 260 258 258 261 267 270 269 268 265 261 256 253 254 258 264
227 227 229 231 232 234 234 233 231 232 234 234 234 235 240 247 254 258 256 250 241 233 226 222 222 224 232 241 249 252 252 249 247 242 236 229 225 224 227 237 250 264 274 280 282 279 275 274 274 274 271 269 266 264 262 259 259 264 272 277 278 277 273 269 265 262 261 262 264
226 225 227 230 232 235 237 238 239 240 240 238 238 240 244 250 254 255 251 244 236 228 222 220 221 226 233 240 245 247 244 240 234 229 226 223 222 223 228 240 252 261 270 277 279 278 276 274 276 275 273 269 266 263 261 259 262 268 275 278 280 280 278 275 271 269 267 267 267
228 228 231 235 238 241 243 244 246 246 244 242 240 241 244 247 249 248 244 237 230 223 219 218 221 227 233 239 243 243 239 231 223 221 220 220 221 224 232 242 250 257 264 270 277 280 280 279 278 276 273 269 265 262 260 261 264 269 273 277 280 282 281 279 277 274 272 271 270
237 237 239 242 245 247 248 249 249 249 248 245 242 241 242 244 245 242 237 230 224 220 218 219 223 229 235 241 245 244 235 223 217 216 218 220 223 228 235 241 246 250 256 264 274 282 285 284 281 277 273 269 264 260 258 262 266 269 271 274 276 278 280 280 280 279 276 274 272
246 246 246 247 248 250 251 251 252 251 249 247 244 243 243 243 242 239 232 225 220 217 218 221 226 231 237 244 249 247 233 218 213 214 217 220 226 232 236 238 241 246 253 265 281 291 294 291 285 278 273 270 265 260 259 263 267 270 272 273 273 274 275 278 280 281 279 277 275
251 250 250 250 251 252 253 253 253 252 250 248 246 244 243 243 241 236 230 222 217 216 217 221 225 231 237 245 250 245 229 215 212 214 218 223 230 234 235 235 239 245 256 273 292 302 304 300 291 281 274 270 267 264 261 263 268 272 275 276 277 276 275 276 280 282 282 280 278
253 252 252 254 255 255 255 254 254 252 251 248 246 244 242 241 239 234 228 221 216 215 217 219 223 229 236 243 245 236 220 211 212 216 223 229 234 235 234 234 240 249 264 284 300 307 308 304 297 286 277 271 268 266 264 265 268 272 275 277 279 280 279 279 280 282 283 283 280
255 254 255 256 256 256 256 255 254 252 250 247 245 243 241 240 237 233 227 221 217 216 216 218 222 227 234 239 236 224 212 209 213 221 228 234 236 235 233 235 243 256 274 291 302 307 308 306 300 292 283 277 273 269 267 266 270 273 274 276 278 280 282 282 283 283 283 283 282
259 258 258 257 257 256 256 256 254 251 249 246 244 242 240 239 236 232 227 222 219 218 218 219 223 228 232 233 226 216 211 212 220 229 236 238 235 232 232 237 247 262 279 293 302 307 308 306 301 295 289 283 279 275 272 271 271 273 274 275 276 279 281 283 284 283 282 282 281
265 264 261 259 258 257 256 255 253 251 248 246 244 242 239 237 234 231 227 223 221 220 220 223 226 229 230 227 220 213 213 218 230 240 244 238 232 229 232 239 251 266 282 293 302 306 307 304 300 295 291 287 283 279 276 273 272 272 273 274 275 277 280 282 284 284 282 279 278
270 267 264 261 259 257 255 254 252 249 247 245 243 240 236 234 232 229 227 224 223 224 225 227 230 232 231 225 217 213 216 227 242 250 246 234 228 228 232 242 254 268 281 292 301 305 305 303 298 294 290 287 283 279 276 273 271 270 270 272 274 277 279 281 283 283 282 278 275
270 268 265 262 259 256 254 252 250 247 245 243 241 238 235 232 230 228 227 226 226 227 229 231 233 234 231 224 217 216 224 240 254 256 244 230 225 227 234 245 257 268 279 290 299 304 305 302 298 293 289 285 282 278 275 272 270 268 267 269 272 276 278 280 281 282 281 278 275
269 267 265 261 257 254 252 250 247 244 242 241 241 239 235 232 230 229 228 228 229 230 231 232 234 234 230 222 217 222 237 255 264 259 241 227 224 229 237 249 258 268 277 288 297 303 304 301 297 292 288 284 281 278 275 272 269 267 266 267 271 274 277 279 280 281 280 278 275
266 265 263 260 256 252 249 247 245 243 241 241 241 240 237 233 231 230 229 230 230 231 232 233 234 232 227 220 220 230 248 264 267 255 237 225 225 231 241 251 258 267 276 286 295 301 302 300 294 290 286 284 281 278 275 272 270 268 267 268 271 274 277 279 281 281 280 278 276
265 264 261 258 254 250 248 247 246 244 243 242 242 240 237 234 232 231 230 231 232 233 233 234 234 231 226 221 226 237 253 261 258 244 230 224 226 234 243 252 259 267 277 286 294 299 300 297 292 288 285 283 280 278 276 274 271 270 270 271 274 277 279 281 281 281 280 279 277
265 263 260 255 251 248 247 247 247 246 244 242 241 240 238 235 233 233 233 234 235 235 235 235 233 228 224 223 230 242 251 251 243 232 225 224 229 237 246 254 262 270 279 286 293 297 297 295 291 288 285 283 280 278 277 275 274 273 274 276 278 280 281 282 282 282 281 280 278
267 264 260 255 250 248 247 247 247 246 245 244 242 241 239 236 235 235 236 237 238 237 236 234 230 225 222 225 233 242 246 243 234 227 225 227 233 241 249 258 266 274 280 286 291 294 296 295 293 290 287 284 281 279 278 277 277 277 278 280 281 282 283 283 283 283 282 281 279
268 266 263 258 253 250 248 246 245 245 246 245 244 243 240 237 236 237 239 240 239 238 236 233 228 224 224 228 236 241 242 237 230 226 227 231 237 244 253 261 270 276 281 285 289 292 295 297 297 294 290 286 283 281 280 279 279 279 280 281 282 283 283 283 283 283 282 281 279
269 268 266 261 254 250 247 246 245 246 246 247 246 245 243 240 238 239 242 242 240 238 236 233 229 227 228 233 238 241 238 233 229 228 230 235 240 247 256 264 271 276 279 283 287 291 296 299 299 297 293 287 284 282 281 280 280 281 281 282 283 284 284 283 282 282 282 280 278
269 267 263 255 247 243 243 244 245 245 246 247 246 246 244 242 240 242 244 244 242 239 236 234 232 231 232 235 237 236 233 230 230 231 234 238 244 250 257 265 270 274 277 281 286 291 296 299 300 297 293 288 284 281 280 281 281 282 282 282 283 284 284 282 281 281 281 280 278
256 249 243 235 231 231 234 239 242 244 244 245 246 245 244 242 241 243 245 246 243 239 236 235 233 233 233 234 234 232 231 230 231 234 237 241 246 252 259 265 270 273 277 281 287 292 297 299 299 297 293 288 284 281 281 281 281 282 282 282 283 283 283 281 279 279 280 280 279
201 200 203 206 210 217 225 232 238 241 243 244 244 245 245 244 241 242 245 245 242 237 234 233 232 232 231 231 230 229 230 231 234 237 240 244 249 255 262 267 271 274 278 283 289 294 298 299 298 295 291 287 284 282 281 281 282 282 282 281 282 282 281 279 277 276 277 279 279
Height
1533 1535 1536 1536 1537 1538 1539 1540 1540 1541 1542 1542 1543 1543 1544 1545 1546 1547 1547 1548 1548 1549 1550 1552 1552 1552 1553 1553 1554 1555 1555 1555 1556 1556 1556 1556 1556 1557 1557 1557 1557 1557 1557 1557 1557 1557 1557 1557 1557 1557 1557 1557 1556 1556 1555 1555 1555 1555 1555 1555 1555 1555 1554 1554 1554 1554 1554 1553 1553
1531 1532 1534 1535 1535 1536 1537 1538 1539 1539 1540 1541 1542 1542 1543 1544 1545 1545 1545 1546 1547 1548 1550 1551 1551 1552 1552 1552 1553 1553 1554 1554 1554 1555 1555 1555 1555 1555 1556 1556 1556 1556 1556 1555 1555 1555 1555 1555 1555 1555 1555 1555 1555 1555 1554 1554 1554 1554 1554 1554 1553 1553 1553 1553 1553 1553 1553 1552 1552
1529 1531 1532 1533 1533 1534 1535 1537 1537 1537 1538 1539 1541 1541 1542 1543 1543 1543 1543 1544 1546 1547 1548 1550 1550 1551 1551 1552 1552 1552 1552 1553 1553 1553 1553 1554 1554 1554 1555 1555 1555 1555 1555 1554 1554 1554 1554 1554 1554 1554 1554 1554 1554 1554 1554 1553 1553 1553 1553 1553 1553 1552 1552 1552 1552 1552 1552 1552 1552
1527 1528 1529 1530 1531 1532 1533 1534 1535 1536 1537 1538 1539 1540 1541 1541 1541 1541 1542 1543 1545 1546 1547 1548 1548 1549 1550 1550 1551 1551 1551 1552 1552 1552 1552 1552 1553 1553 1553 1554 1554 1554 1554 1553 1553 1553 1553 1553 1553 1553 1553 1553 1553 1553 1553 1552 1552 1552 1552 1552 1552 1552 1552 1552 1551 1551 1551 1551 1551
1525 1526 1527 1528 1529 1530 1530 1532 1533 1534 1535 1537 1537 1538 1539 1539 1539 1539 1540 1542 1543 1544 1545 1546 1546 1547 1547 1548 1549 1549 1550 1550 1550 1551 1551 1551 1552 1552 1552 1553 1553 1553 1553 1552 1552 1552 1552 1552 1552 1552 1552 1552 1552 1552 1552 1552 1552 1552 1552 1551 1551 1551 1551 1551 1550 1550 1550 1550 1550
1523 1524 1525 1526 1527 1528 1528 1529 1531 1533 1534 1535 1536 1537 1537 1537 1537 1538 1539 1540 1542 1542 1543 1544 1544 1545 1546 1547 1547 1548 1548 1548 1549 1549 1550 1550 1550 1551 1551 1551 1552 1552 1552 1551 1551 1551 1551 1551 1551 1551 1551 1551 1551 1551 1551 1551 1551 1551 1551 1550 1550 1550 1550 1550 1549 1549 1549 1549 1549
1522 1522 1523 1524 1526 1526 1527 1527 1529 1531 1532 1533 1534 1534 1535 1535 1535 1536 1537 1539 1540 1541 1541 1542 1542 1543 1544 1545 1546 1546 1547 1547 1547 1548 1548 1549 1549 1550 1550 1550 1550 1550 1550 1550 1550 1550 1550 1550 1550 1550 1550 1550 1550 1550 1550 1550 1550 1550 1550 1549 1549 1549 1549 1549 1548 1548 1548 1548 1548
1520 1521 1522 1522 1523 1524 1525 1526 1527 1529 1530 1531 1531 1532 1532 1533 1534 1535 1537 1538 1538 1539 1540 1540 1541 1542 1543 1544 1544 1545 1545 1546 1546 1547 1547 1547 1548 1548 1549 1549 1549 1549 1549 1548 1548 1548 1548 1549 1549 1549 1549 1549 1549 1549 1549 1548 1549 1549 1549 1548 1548 1548 1547 1547 1547 1547 1547 1547 1547
1518 1519 1520 1521 1522 1522 1523 1524 1525 1527 1527 1528 1529 1530 1531 1532 1533 1534 1535 1536 1537 1537 1538 1539 1540 1541 1542 1542 1543 1543 1544 1544 1545 1545 1546 1546 1547 1547 1547 1548 1548 1547 1547 1547 1547 1547 1547 1547 1547 1547 1547 1547 1547 1547 1547 1547 1547 1547 1547 1548 1547 1547 1546 1546 1546 1546 1546 1546 1545
1517 1517 1518 1519 1519 1520 1522 1523 1524 1525 1526 1527 1527 1528 1529 1530 1531 1532 1533 1534 1535 1536 1537 1538 1539 1540 1540 1541 1542 1542 1543 1543 1544 1545 1545 1545 1546 1546 1547 1547 1547 1547 1546 1546 1546 1546 1546 1546 1546 1546 1546 1546 1546 1546 1546 1546 1546 1546 1546 1546 1546 1546 1545 1545 1545 1545 1544 1544 1544
1515 1516 1517 1517 1518 1519 1520 1521 1522 1523 1524 1525 1526 1526 1527 1528 1529 1530 1531 1532 1533 1534 1535 1536 1537 1538 1539 1539 1540 1541 1542 1542 1543 1544 1544 1545 1545 1546 1546 1546 1546 1546 1545 1545 1545 1545 1545 1545 1544 1544 1544 1544 1544 1544 1544 1544 1544 1545 1545 1545 1545 1544 1544 1544 1543 1543 1543 1543 1542
1514 1515 1515 1516 1517 1517 1518 1519 1520 1521 1522 1522 1523 1524 1525 1526 1527 1528 1529 1530 1531 1532 1534 1535 1536 1537 1537 1538 1539 1540 1541 1541 1542 1543 1544 1544 1545 1545 1545 1545 1545 1545 1545 1544 1544 1544 1544 1544 1543 1543 1542 1542 1542 1542 1542 1542 1543 1543 1543 1543 1543 1543 1542 1542 1542 1542 1542 1542 1541
1512 1513 1514 1514 1515 1516 1517 1517 1518 1519 1520 1521 1522 1522 1523 1524 1526 1527 1527 1528 1530 1531 1533 1533 1534 1535 1536 1537 1538 1539 1540 1540 1541 1542 1543 1544 1545 1545 1545 1544 1544 1544 1544 1543 1543 1543 1543 1542 1542 1541 1541 1541 1541 1541 1541 1541 1542 1542 1542 1542 1542 1541 1541 1541 1541 1541 1541 1540 1540
1511 1512 1512 1513 1513 1514 1515 1515 1516 1517 1518 1519 1520 1521 1522 1523 1524 1525 1526 1527 1529 1531 1532 1532 1533 1534 1535 1537 1537 1538 1538 1539 1540 1541 1542 1543 1543 1544 1544 1543 1543 1542 1542 1542 1542 1542 1541 1541 1540 1540 1540 1540 1540 1540 1540 1540 1540 1540 1540 1540 1540 1540 1540 1539 1539 1539 1539 1539 1538
1510 1510 1511 1511 1512 1512 1513 1514 1515 1516 1517 1517 1519 1520 1521 1521 1522 1523 1525 1527 1528 1530 1531 1532 1532 1534 1535 1536 1536 1537 1537 1538 1538 1539 1540 1541 1541 1542 1542 1542 1542 1541 1541 1541 1540 1540 1540 1539 1539 1539 1539 1539 1538 1538 1538 1539 1539 1539 1539 1539 1539 1538 1538 1538 1538 1538 1538 1537 1537
1508 1508 1509 1509 1510 1510 1511 1512 1513 1514 1515 1516 1518 1518 1519 1519 1520 1522 1523 1525 1527 1528 1529 1530 1532 1533 1534 1534 1535 1535 1536 1536 1537 1537 1537 1537 1539 1540 1540 1540 1540 1540 1539 1539 1539 1539 1538 1538 1538 1538 1538 1538 1537 1537 1537 1537 1537 1537 1537 1537 1537 1537 1537 1537 1537 1537 1536 1536 1536
1507 1507 1507 1508 1508 1509 1510 1511 1512 1513 1514 1515 1516 1516 1516 1517 1518 1520 1522 1523 1524 1526 1527 1529 1530 1532 1532 1532 1533 1533 1534 1534 1534 1534 1534 1535 1537 1538 1538 1539 1538 1538 1538 1538 1538 1537 1537 1537 1537 1537 1537 1537 1537 1537 1537 1537 1536 1536 1536 1536 1536 1536 1536 1536 1536 1535 1535 1535 1534
1505 1506 1506 1506 1507 1507 1508 1509 1511 1512 1512 1513 1513 1513 1514 1515 1517 1519 1520 1521 1522 1523 1526 1527 1529 1530 1530 1531 1531 1532 1532 1532 1532 1532 1532 1534 1535 1537 1537 1537 1537 1537 1537 1537 1536 1536 1536 1536 1535 1535 1535 1535 1535 1536 1536 1536 1535 1535 1535 1535 1535 1534 1534 1534 1534 1534 1534 1533 1533
1504 1504 1505 1505 1505 1506 1507 1508 1510 1510 1511 1511 1511 1512 1512 1514 1516 1517 1518 1519 1520 1522 1524 1526 1527 1528 1528 1529 1529 1530 1529 1529 1530 1530 1531 1533 1534 1535 1535 1535 1535 1535 1535 1535 1535 1535 1534 1534 1534 1534 1534 1534 1534 1534 1534 1534 1534 1534 1533 1533 1533 1533 1533 1533 1533 1533 1532 1532 1532
1502 1502 1503 1503 1504 1505 1506 1507 1508 1508 1509 1509 1510 1510 1511 1512 1513 1515 1516 1517 1518 1520 1522 1523 1525 1526 1527 1527 1527 1527 1527 1527 1528 1529 1530 1532 1533 1533 1533 1534 1534 1534 1534 1534 1534 1533 1533 1533 1532 1532 1533 1533 1533 1533 1533 1533 1532 1532 1532 1532 1532 1532 1532 1531 1531 1531 1531 1531 1530
1500 1501 1501 1502 1502 1503 1505 1506 1506 1507 1507 1508 1508 1509 1509 1510 1511 1513 1514 1515 1516 1518 1519 1521 1522 1523 1524 1525 1525 1525 1525 1525 1526 1527 1529 1530 1531 1532 1532 1532 1532 1533 1533 1533 1532 1532 1532 1532 1531 1531 1531 1531 1531 1531 1532 1531 1531 1531 1530 1530 1530 1530 1530 1530 1530 1529 1529 1529 1529
1497 1498 1499 1500 1501 1502 1503 1504 1504 1505 1506 1507 1507 1507 1508 1508 1509 1511 1512 1513 1515 1516 1517 1518 1520 1521 1522 1522 1523 1523 1523 1523 1524 1526 1528 1529 1529 1530 1530 1531 1531 1531 1531 1531 1531 1531 1531 1530 1530 1530 1530 1530 1530 1530 1530 1530 1530 1529 1529 1529 1528 1528 1528 1528 1528 1528 1527 1527 1527
1495 1496 1497 1498 1499 1500 1501 1502 1502 1503 1504 1505 1506 1506 1506 1507 1508 1509 1510 1512 1513 1514 1515 1517 1518 1519 1520 1521 1521 1521 1521 1522 1523 1525 1527 1527 1528 1528 1529 1529 1530 1530 1530 1530 1530 1530 1529 1529 1529 1528 1528 1528 1528 1528 1528 1528 1528 1528 1528 1527 1527 1527 1527 1526 1526 1526 1526 1526 1525
1493 1494 1495 1496 1497 1498 1499 1500 1501 1502 1503 1503 1504 1505 1505 1506 1507 1508 1509 1510 1511 1512 1513 1515 1516 1517 1519 1519 1519 1519 1519 1520 1522 1523 1525 1526 1526 1527 1527 1528 1528 1528 1528 1528 1528 1528 1528 1528 1527 1527 1527 1527 1527 1527 1527 1527 1527 1527 1526 1526 1526 1525 1525 1525 1524 1524 1524 1524 1523
1492 1493 1494 1495 1496 1497 1497 1498 1499 1500 1501 1502 1502 1503 1504 1505 1506 1507 1507 1508 1510 1511 1512 1513 1515 1516 1517 1517 1517 1517 1518 1519 1521 1522 1523 1524 1525 1526 1526 1527 1527 1527 1527 1527 1526 1526 1526 1526 1526 1526 1526 1526 1526 1526 1525 1525 1525 1525 1525 1524 1524 1524 1523 1523 1522 1522 1522 1522 1521
1490 1492 1493 1494 1495 1495 1496 1496 1497 1498 1499 1500 1501 1502 1502 1503 1504 1505 1506 1507 1508 1509 1511 1512 1513 1514 1515 1515 1515 1516 1517 1518 1519 1521 1522 1522 1523 1524 1525 1525 1525 1525 1525 1525 1525 1525 1525 1525 1524 1524 1524 1524 1524 1524 1524 1523 1523 1523 1523 1522 1522 1522 1522 1521 1521 1520 1520 1520 1519
1488 1490 1491 1492 1493 1493 1493 1494 1495 1496 1497 1498 1499 1500 1501 1501 1502 1503 1504 1505 1507 1508 1509 1510 1512 1512 1513 1513 1514 1514 1515 1517 1518 1519 1520 1520 1521 1522 1523 1523 1524 1523 1523 1523 1523 1523 1523 1523 1523 1522 1522 1523 1523 1522 1522 1522 1521 1521 1521 1521 1520 1520 1520 1519 1519 1518 1518 1517 1517
1487 1488 1489 1491 1491 1491 1492 1492 1493 1494 1495 1496 1497 1498 1499 1499 1500 1501 1502 1504 1505 1507 1507 1509 1510 1511 1511 1512 1512 1513 1514 1515 1517 1517 1518 1519 1520 1521 1522 1522 1522 1522 1522 1522 1522 1522 1522 1521 1521 1521 1521 1521 1521 1521 1521 1520 1520 1519 1519 1518 1518 1518 1518 1517 1517 1517 1516 1515 1515
1485 1486 1487 1488 1489 1489 1490 1491 1491 1492 1493 1494 1495 1496 1497 1498 1499 1500 1501 1503 1504 1505 1506 1507 1508 1509 1510 1510 1511 1512 1513 1514 1515 1516 1516 1517 1518 1519 1520 1520 1520 1520 1520 1520 1520 1520 1520 1520 1519 1519 1519 1519 1519 1519 1519 1518 1518 1517 1517 1516 1516 1516 1516 1515 1515 1515 1514 1513 1513
1483 1484 1485 1486 1487 1487 1488 1489 1490 1491 1492 1492 1493 1494 1495 1496 1497 1499 1500 1502 1502 1503 1504 1505 1506 1507 1508 1509 1510 1511 1512 1513 1514 1514 1515 1515 1516 1517 1518 1519 1519 1519 1519 1519 1519 1518 1518 1518 1518 1517 1517 1517 1517 1517 1517 1516 1516 1515 1515 1514 1513 1513 1513 1513 1513 1512 1512 1512 1511
1482 1483 1484 1485 1485 1486 1487 1487 1488 1489 1490 1491 1492 1492 1494 1495 1496 1497 1499 1500 1501 1502 1503 1504 1505 1506 1507 1508 1509 1510 1511 1512 1512 1512 1513 1513 1515 1516 1517 1517 1517 1517 1517 1517 1517 1517 1517 1517 1516 1516 1516 1515 1515 1515 1515 1514 1514 1513 1513 1512 1511 1511 1511 1511 1511 1510 1510 1510 1509
1481 1482 1482 1483 1484 1485 1486 1486 1487 1488 1488 1489 1490 1491 1492 1494 1495 1496 1497 1499 1500 1501 1502 1502 1503 1505 1506 1507 1508 1509 1510 1510 1510 1511 1511 1512 1513 1515 1516 1516 1516 1516 1516 1515 1515 1515 1515 1515 1514 1514 1514 1513 1513 1513 1512 1512 1511 1511 1510 1509 1509 1508 1508 1508 1508 1507 1507 1507 1507
1480 1481 1482 1482 1483 1484 1484 1485 1486 1486 1487 1488 1488 1490 1491 1492 1494 1495 1496 1497 1498 1499 1500 1501 1502 1503 1504 1505 1507 1507 1508 1508 1508 1509 1510 1511 1512 1513 1514 1514 1514 1514 1514 1513 1513 1513 1513 1513 1512 1512 1512 1511 1511 1510 1510 1509 1509 1508 1507 1507 1506 1506 1506 1506 1505 1505 1505 1504 1504
1479 1480 1480 1481 1482 1483 1483 1484 1484 1485 1486 1487 1487 1488 1490 1492 1493 1494 1495 1495 1496 1497 1498 1499 1501 1502 1503 1504 1505 1506 1506 1507 1507 1507 1508 1510 1511 1512 1512 1512 1512 1512 1512 1512 1512 1512 1511 1511 1511 1510 1510 1509 1508 1508 1507 1507 1507 1506 1505 1504 1504 1504 1503 1503 1503 1502 1502 1502 1501
1477 1478 1479 1480 1481 1482 1482 1482 1483 1484 1485 1486 1487 1487 1489 1490 1491 1492 1493 1494 1495 1496 1497 1498 1500 1501 1502 1503 1504 1504 1505 1505 1506 1506 1507 1509 1510 1510 1510 1511 1511 1510 1510 1510 1510 1510 1510 1509 1509 1508 1507 1507 1506 1506 1505 1505 1504 1503 1503 1502 1502 1501 1501 1501 1500 1499 1499 1498 1498
1476 1477 1478 1479 1480 1480 1481 1482 1482 1483 1484 1484 1485 1486 1487 1489 1490 1491 1492 1492 1493 1495 1496 1497 1498 1500 1501 1501 1502 1503 1503 1504 1504 1505 1506 1507 1508 1508 1508 1509 1509 1509 1508 1508 1508 1508 1508 1507 1507 1506 1505 1505 1504 1504 1503 1502 1502 1501 1500 1500 1499 1499 1498 1497 1497 1496 1496 1495 1495
1475 1476 1477 1477 1478 1479 1480 1481 1481 1482 1483 1483 1484 1485 1487 1488 1489 1490 1490 1491 1492 1493 1495 1496 1497 1498 1499 1500 1501 1502 1502 1503 1503 1504 1505 1506 1506 1507 1507 1507 1507 1507 1507 1506 1506 1506 1506 1505 1504 1504 1503 1502 1502 1501 1501 1500 1499 1498 1498 1497 1497 1496 1496 1495 1494 1493 1492 1492 1492
1474 1475 1476 1477 1477 1478 1479 1479 1480 1481 1482 1482 1483 1484 1486 1487 1487 1488 1489 1490 1491 1492 1493 1494 1495 1497 1497 1498 1499 1500 1501 1502 1502 1503 1503 1504 1504 1505 1505 1505 1505 1505 1505 1504 1504 1504 1503 1503 1502 1502 1501 1500 1500 1499 1498 1497 1497 1496 1495 1495 1494 1493 1493 1492 1492 1490 1490 1489 1489
1473 1474 1475 1476 1476 1477 1478 1478 1479 1480 1481 1482 1482 1483 1484 1486 1486 1487 1487 1488 1490 1491 1492 1493 1494 1495 1496 1497 1498 1499 1499 1500 1501 1501 1502 1502 1503 1503 1503 1503 1503 1503 1503 1502 1502 1501 1501 1500 1500 1499 1498 1498 1497 1497 1496 1495 1494 1493 1493 1492 1491 1491 1490 1490 1489 1488 1487 1486 1486
1472 1473 1474 1475 1475 1476 1477 1477 1478 1479 1480 1481 1482 1482 1483 1484 1485 1486 1487 1487 1489 1490 1491 1492 1493 1494 1495 1496 1497 1498 1498 1499 1499 1500 1500 1501 1501 1501 1501 1501 1501 1501 1501 1500 1499 1499 1499 1498 1497 1497 1496 1495 1495 1494 1493 1492 1492 1491 1490 1490 1489 1488 1487 1487 1486 1485 1484 1483 1483
1472 1472 1473 1474 1474 1475 1476 1477 1477 1478 1479 1480 1481 1482 1482 1483 1484 1485 1486 1487 1488 1489 1490 1491 1492 1493 1494 1495 1496 1497 1497 1498 1498 1499 1499 1499 1499 1499 1499 1499 1499 1499 1498 1498 1497 1497 1496 1496 1495 1494 1494 1493 1492 1492 1491 1490 1489 1488 1488 1487 1487 1486 1485 1485 1484 1483 1482 1481 1480